Location: Praha
(50.0830°N, 14.4670°E)
Time: 02:36:17
(UTC+02:00)

ISS - Pass Details

Date: 23 September 2023
Orbit: 413 x 422 km, 51.6° (Epoch: 25 September)

Event Time Altitude Azimuth Distance (km) Brightness Sun altitude
Rises 20:49:55 0° 281° (W) 2,353 1.6 -18.2°
Reaches altitude 10° 20:52:01 10° 284° (WNW) 1,490 0.3 -18.5°
Maximum altitude 20:55:21 71° 8° (N) 444 -3.7 -19.0°
Enters shadow 20:55:41 64° 54° (NE) 465 -3.8 -19.0°
